TDRS 8

Last updated on July 6, 2021, 3:27 p.m. UTC

1 26388U 00034A   21186.79876890 -.00000233  00000-0  00000-0 0  9995
2 26388   9.8241  44.9282 0020906 346.0182 270.0271  1.00271077 77056
UTC
Height (km)
Latitude
Longitude
Inclination
Orbital Period
UTC large
Height (km)
Speed (km/s)
/
Latitude / Longitude
Inclination (degrees)
Orbital Period (minutes)
Azimuth
Elevation
Range (km)
Doppler Factor
iOS Compass Heading
iOS Angle